SCP
0 0 0 0 0 0 0 0 1 3 5 7 7 6 4 5 4 4 3 3 4 3 3 5 3 2 3 1 1 1 1 1 1 1 0 2 2 2 2 2 2 1 1
0 0 0 0 0 0 0 0 0 0 3 4 5 5 5 4 4 4 3 2 5 5 4 3 4 6 3 3 2 2 3 2 1 2 3 3 2 3 3 3 2 1 2
0 0 0 0 0 0 0 0 0 0 0 1 2 2 3 3 4 4 4 3 3 6 6 5 5 5 6 5 4 4 3 3 3 3 4 4 3 3 3 3 3 2 1
0 0 0 0 0 0 0 0 0 0 0 0 1 1 2 3 3 2 3 3 3 3 5 6 7 7 7 6 5 6 6 5 4 8 6 4 2 1 3 2 2 1 0
0 0 0 0 0 0 0 0 0 0 0 0 0 0 0 0 1 1 3 2 3 3 3 5 6 5 5 4 5 5 5 7 6 7 8 5 4 2 1 0 0 1 0
0 0 0 0 0 0 0 0 0 0 0 0 0 0 0 0 1 1 1 1 1 1 3 2 3 5 2 4 4 1 2 5 6 6 5 6 5 3 2 2 1 0 0
0 0 0 0 0 0 0 0 0 0 0 0 0 0 0 0 0 1 1 1 0 0 0 1 3 3 1 0 0 0 0 0 2 2 2 3 4 2 2 1 1 0 0
0 0 0 0 0 0 0 0 0 0 0 0 0 0 0 0 0 0 0 0 1 1 1 1 1 1 0 1 0 0 0 0 0 0 1 1 1 2 2 1 1 1 0
0 0 0 0 0 0 0 0 0 0 0 0 0 0 0 0 0 0 0 0 0 0 0 0 1 -0 0 0 0 0 0 2 0 0 0 0 -0 2 1 1 1 1 1
0 0 0 0 0 0 0 0 0 0 0 0 0 0 0 0 0 0 0 0 0 0 0 0 1 0 0 0 0 0 0 0 0 0 0 0 -0 1 2 1 2 1 1
0 0 0 0 0 0 0 0 0 0 0 0 0 0 0 0 0 0 0 -0 0 0 0 0 0 0 0 0 0 0 0 0 0 0 0 0 0 1 1 2 1 1 1
0 0 0 0 0 0 0 0 0 0 0 0 0 0 0 0 0 0 0 0 0 0 0 0 0 0 0 0 0 0 0 0 0 0 0 0 0 0 1 1 1 1 1
0 0 0 0 0 0 0 0 0 0 0 0 0 0 0 0 0 0 0 0 0 0 0 0 -0 -0 0 -0 0 0 0 0 0 0 0 0 0 0 1 1 0 0 0
0 0 0 0 0 0 0 0 0 0 0 0 0 0 0 0 0 0 0 0 0 0 0 0 0 0 0 0 0 0 0 0 0 0 0 0 0 2 1 1 0 0 0
0 0 0 0 0 0 0 0 0 0 0 0 0 0 0 0 0 0 0 0 0 0 0 0 0 0 0 0 0 0 0 0 0 0 0 0 0 0 0 0 0 0 0
0 0 0 0 0 0 0 0 0 0 0 0 0 0 0 0 0 0 0 0 0 0 0 0 0 0 0 0 0 0 0 0 0 0 0 0 0 0 0 0 0 0 0
0 0 0 0 0 0 0 0 0 0 0 0 0 0 0 0 0 0 0 0 0 0 0 0 0 0 0 0 -0 0 0 0 0 0 0 0 0 0 0 0 0 0 0
0 0 0 0 0 0 0 0 0 0 0 0 0 0 0 0 0 0 0 0 0 0 0 0 0 0 0 0 0 -0 0 0 0 0 0 0 0 0 0 0 0 0 0
0 0 0 0 0 0 0 0 0 0 0 0 0 0 0 0 0 0 0 0 -0 -0 0 0 0 0 0 0 0 0 0 0 0 0 0 0 0 0 0 0 0 0 0
0 0 0 0 0 0 0 0 0 0 0 0 0 0 0 0 0 0 0 0 0 -0 -0 0 0 0 0 0 0 0 0 0 0 0 0 0 0 0 0 0 0 0 0
0 0 0 0 0 0 0 0 0 0 0 0 0 0 0 0 0 0 0 0 0 0 -0 -0 0 0 0 0 0 0 0 0 0 0 0 0 0 0 -0 -0 0 0 0
0 0 0 0 0 0 0 0 0 0 0 0 0 0 0 0 0 0 0 0 0 0 0 0 0 0 0 0 -0 0 -0 0 0 0 0 0 0 0 0 -0 0 0 0
0 0 0 0 0 0 0 0 0 0 0 0 0 0 0 0 0 0 0 0 0 0 0 0 -0 0 0 0 0 -0 -0 -0 0 0 0 0 0 0 0 0 0 0 0
0 0 -0 -0 -0 0 0 0 0 0 0 0 0 0 0 0 0 0 0 0 0 0 0 0 0 -0 -0 0 0 -0 -0 0 0 0 0 0 0 0 0 0 0 0 0
-0 -0 -0 -0 -0 0 0 0 0 0 0 0 0 0 0 0 0 0 0 0 0 0 0 0 0 0 0 0 0 0 0 -0 0 0 0 0 0 0 0 0 0 0 0
-0 -0 -0 -0 -0 0 0 0 0 0 0 0 0 0 0 0 0 0 0 0 0 0 0 0 0 0 0 0 0 0 0 0 0 0 0 0 0 0 0 0 0 0 0
Wind_Speed_500mb
43 43 38 50 38 33 36 23 20 20 33 41 45 54 61 59 80 65 65 66 65 73 75 78 80 77 87 90 87 87 85 79 69 56 53 56 55 62 60 52 48 42 36
45 27 31 34 36 30 27 28 32 28 33 35 47 53 56 54 53 61 69 78 78 82 79 85 91 89 89 91 95 88 90 80 68 72 64 52 58 53 59 56 48 45 37
51 45 36 29 27 28 22 14 12 22 26 35 40 45 50 51 51 56 62 59 62 84 86 97 97 97 94 98 96 91 90 90 81 80 64 34 48 62 70 63 53 50 41
55 52 55 42 36 34 22 15 15 15 16 21 29 40 45 45 54 61 58 62 67 77 88 93 96 101 103 106 93 96 90 93 92 88 87 77 47 31 28 52 47 45 49
59 46 40 42 38 34 27 17 16 19 14 16 20 31 40 50 48 49 50 61 69 73 87 100 90 88 96 91 87 93 102 108 101 103 94 92 82 66 45 32 44 49 54
47 40 43 45 34 23 19 17 14 6 4 7 14 21 29 38 49 59 61 66 71 73 75 77 89 98 103 124 92 75 96 99 88 94 95 92 86 82 76 60 58 51 46
57 53 48 37 25 16 8 6 8 10 14 19 24 30 34 38 42 48 54 63 77 88 84 86 75 76 95 84 70 56 53 57 73 95 101 103 94 83 69 56 50 42 39
55 47 36 30 27 18 8 8 16 21 29 36 41 43 39 44 43 44 49 58 60 66 72 79 75 74 78 73 80 83 106 94 97 96 95 72 77 70 61 56 47 38 41
39 33 28 25 18 10 8 11 13 15 21 29 33 32 28 33 38 39 45 53 57 67 75 80 82 83 80 63 68 64 70 87 86 69 71 69 96 76 60 47 46 44 51
30 24 21 15 11 9 14 22 19 20 16 16 17 24 31 33 33 46 50 54 62 65 66 69 73 75 79 76 64 60 68 98 107 82 98 108 112 96 53 49 45 52 57
28 17 13 16 11 9 9 9 10 14 18 19 18 20 29 30 36 50 58 63 62 57 64 73 80 83 76 64 70 68 72 83 96 94 65 77 57 60 58 55 46 43 48
22 13 15 13 8 16 22 17 10 8 18 26 33 34 28 29 36 46 59 62 69 61 60 63 73 67 68 60 64 65 60 71 74 92 69 4 57 57 56 42 44 43 42
33 24 11 5 12 18 25 38 44 35 23 21 26 34 39 42 42 47 57 58 64 67 61 60 63 70 74 69 54 66 66 64 58 65 51 68 62 50 40 37 43 44 32
29 30 24 16 15 28 38 42 45 41 43 44 43 49 52 56 62 63 61 68 68 67 68 71 68 67 65 58 59 42 64 77 72 55 56 63 56 58 66 58 53 46 40
21 13 18 28 40 39 46 46 43 45 48 50 48 40 40 45 54 62 63 65 68 70 68 73 76 73 58 57 45 35 32 43 38 39 43 53 60 60 58 49 46 44 41
20 38 42 38 23 20 16 19 28 38 44 41 46 54 56 59 61 67 70 69 71 74 68 72 71 75 64 52 45 36 31 43 48 45 44 51 49 47 44 43 37 31 26
11 14 14 29 34 38 40 45 50 51 50 53 58 63 62 57 56 59 58 65 68 72 74 68 70 72 73 65 51 43 15 52 30 39 43 47 45 40 46 39 32 28 25
32 32 33 35 40 44 48 51 50 56 63 70 75 78 78 79 80 76 89 87 75 70 70 76 69 70 67 59 44 43 40 62 45 41 43 50 47 47 45 45 42 36 33
43 43 46 50 55 61 64 64 69 74 75 73 72 69 70 69 74 79 87 99 95 91 72 57 64 62 62 58 61 52 41 44 43 38 48 51 53 46 43 38 37 35 32
40 45 47 53 59 66 67 64 65 68 64 63 65 65 65 67 69 77 91 93 95 95 90 80 52 54 51 52 44 48 61 64 64 39 45 57 56 51 48 50 45 43 45
53 50 55 68 71 57 38 50 60 63 67 64 60 62 62 71 78 84 90 87 89 90 87 85 81 55 57 48 47 47 43 52 60 51 43 47 70 74 69 58 63 59 54
62 70 61 48 35 49 59 67 77 82 87 88 90 91 86 82 83 90 84 78 81 84 80 60 82 85 66 68 64 50 41 41 49 45 50 56 43 54 82 64 63 59 62
52 30 55 71 78 87 89 90 100 96 89 77 74 73 77 79 75 65 70 78 74 75 73 67 69 72 74 67 68 75 64 63 44 51 49 58 58 57 56 59 67 65 68
58 69 82 95 104 105 98 85 79 78 75 74 72 74 67 69 58 61 64 65 69 67 69 67 63 58 58 62 67 59 53 57 50 62 62 56 59 58 58 51 54 60 62
81 95 105 90 78 88 80 79 72 70 72 71 69 68 66 64 65 64 63 68 73 72 69 69 67 67 68 62 56 59 64 52 56 58 58 62 62 62 61 59 60 47 47
101 82 69 74 83 79 75 71 66 64 67 70 65 61 59 63 69 68 66 63 68 69 72 70 68 66 59 56 51 49 56 63 48 34 44 55 59 79 72 71 68 64 61
Wind_Direction_500mb
250 227 231 235 220 211 221 217 215 209 222 231 239 237 231 236 230 228 229 236 242 247 249 252 250 249 249 248 243 241 239 241 242 245 245 242 244 246 250 252 269 263 260
233 224 197 202 212 215 231 241 252 259 242 231 240 243 244 248 246 242 246 239 237 245 249 251 252 250 250 250 245 242 242 242 240 235 237 239 239 238 238 248 252 254 255
214 223 217 198 215 214 197 201 250 265 269 254 243 247 253 257 257 253 257 251 245 241 247 250 254 255 254 255 253 241 238 238 240 235 228 223 235 241 245 248 244 246 248
208 219 220 216 197 176 173 183 187 213 260 268 270 253 253 259 258 259 261 261 257 253 251 252 256 259 261 257 252 243 238 236 239 237 230 228 239 221 226 233 234 242 247
200 190 191 192 156 140 134 147 150 150 183 225 260 262 264 262 270 264 263 259 258 263 259 256 256 257 264 266 262 251 245 237 241 240 228 230 234 233 237 219 223 235 250
195 177 156 142 133 141 140 138 142 145 263 297 308 298 295 293 281 268 263 259 257 256 256 263 263 259 256 266 257 268 265 241 237 240 241 239 226 229 234 237 251 256 269
130 127 122 118 125 143 155 184 213 239 262 284 294 297 293 286 283 283 279 275 270 264 265 264 274 269 262 256 241 261 316 274 257 257 253 244 236 226 230 240 247 251 270
106 104 104 103 108 110 121 252 275 284 290 294 303 298 290 293 296 287 284 278 278 277 274 273 280 288 280 272 266 278 259 253 253 261 263 269 231 225 231 233 245 252 253
102 99 100 99 92 64 340 290 280 275 279 284 272 268 280 293 295 288 283 283 280 275 275 277 284 285 290 296 281 278 261 237 247 260 257 251 267 235 221 229 241 246 248
104 92 77 58 23 346 333 329 254 246 236 223 266 280 269 269 278 289 293 290 291 288 288 286 283 285 291 293 283 263 248 240 242 262 262 271 272 236 216 222 231 240 248
36 47 34 6 336 315 335 58 330 284 270 273 291 297 290 294 278 283 292 298 299 301 300 296 291 291 289 294 285 273 261 244 247 254 255 291 268 237 225 218 227 231 246
339 341 328 292 267 276 283 287 303 327 320 297 290 295 296 303 304 291 288 299 300 296 301 304 302 295 292 293 288 281 268 252 245 240 253 193 240 226 231 221 227 232 236
328 317 290 230 255 270 280 283 285 279 272 292 289 284 281 279 292 301 298 299 300 297 299 300 308 308 291 288 293 279 271 246 238 237 229 191 187 223 231 250 233 236 234
299 283 295 267 276 281 284 282 268 265 276 270 278 285 282 283 288 288 289 287 295 298 300 291 297 305 301 289 277 283 256 246 237 212 199 202 204 205 229 212 217 225 238
244 262 288 292 291 286 277 273 260 266 268 277 283 285 292 290 285 284 287 285 289 293 298 303 289 290 291 289 275 280 268 250 202 207 209 208 209 213 216 212 217 224 237
278 279 285 289 308 287 320 293 279 276 278 274 273 279 285 287 290 293 292 289 289 289 293 292 299 288 280 294 269 282 249 261 235 221 213 213 207 210 218 215 224 213 195
16 18 326 318 321 318 314 307 302 289 272 268 275 277 278 279 279 284 285 284 288 287 284 288 291 295 288 283 287 268 275 284 233 222 212 208 212 219 209 210 204 203 215
350 338 326 314 307 302 299 298 297 295 291 287 283 281 279 281 277 279 282 278 277 285 287 286 284 287 294 277 277 274 264 258 247 228 209 205 201 208 210 211 212 217 223
328 323 318 312 308 306 303 301 295 289 286 285 277 272 273 271 274 274 282 282 284 281 284 289 285 278 282 288 272 266 264 260 272 237 221 212 208 223 226 227 231 236 246
319 313 307 307 307 305 302 300 291 285 285 283 281 275 269 268 271 275 278 275 287 284 282 274 285 285 283 287 287 271 251 261 267 258 247 223 219 214 223 237 233 238 251
315 309 310 310 307 303 293 295 290 284 283 281 277 275 273 269 273 275 277 274 275 284 278 270 265 271 267 277 284 279 266 259 260 255 253 246 246 263 237 243 245 247 261
317 316 309 299 290 300 303 297 293 294 293 292 288 284 282 280 278 276 270 266 274 278 271 270 261 265 267 262 266 272 277 276 267 267 257 250 241 242 248 242 244 251 257
317 309 309 307 305 302 305 304 301 300 298 295 291 287 284 284 272 266 269 271 269 265 269 268 263 261 263 262 263 267 270 267 270 260 252 248 247 250 247 253 248 254 257
311 308 308 307 306 304 304 301 298 296 295 292 290 292 287 284 276 271 273 263 262 259 263 261 260 263 262 261 260 259 267 274 272 260 251 245 244 245 247 248 246 250 253
310 309 310 309 304 308 305 302 298 296 294 291 289 288 284 282 281 273 265 268 266 259 259 259 261 260 257 257 254 253 254 263 254 256 250 248 244 242 243 244 245 252 255
313 314 309 303 304 304 304 303 301 296 287 288 288 287 285 274 272 276 280 273 267 264 262 262 258 255 254 255 248 239 237 245 254 241 242 238 242 239 239 245 251 254 254
Wind_Speed_850mb
43 43 38 50 38 33 36 23 20 20 33 41 45 54 61 59 80 65 65 66 65 73 75 78 80 77 87 90 87 87 85 79 69 56 53 56 55 62 60 52 48 42 36
45 27 31 34 36 30 27 28 32 28 33 35 47 53 56 54 53 61 69 78 78 82 79 85 91 89 89 91 95 88 90 80 68 72 64 52 58 53 59 56 48 45 37
51 45 36 29 27 28 22 14 12 22 26 35 40 45 50 51 51 56 62 59 62 84 86 97 97 97 94 98 96 91 90 90 81 80 64 34 48 62 70 63 53 50 41
55 52 55 42 36 34 22 15 15 15 16 21 29 40 45 45 54 61 58 62 67 77 88 93 96 101 103 106 93 96 90 93 92 88 87 77 47 31 28 52 47 45 49
59 46 40 42 38 34 27 17 16 19 14 16 20 31 40 50 48 49 50 61 69 73 87 100 90 88 96 91 87 93 102 108 101 103 94 92 82 66 45 32 44 49 54
47 40 43 45 34 23 19 17 14 6 4 7 14 21 29 38 49 59 61 66 71 73 75 77 89 98 103 124 92 75 96 99 88 94 95 92 86 82 76 60 58 51 46
57 53 48 37 25 16 8 6 8 10 14 19 24 30 34 38 42 48 54 63 77 88 84 86 75 76 95 84 70 56 53 57 73 95 101 103 94 83 69 56 50 42 39
55 47 36 30 27 18 8 8 16 21 29 36 41 43 39 44 43 44 49 58 60 66 72 79 75 74 78 73 80 83 106 94 97 96 95 72 77 70 61 56 47 38 41
39 33 28 25 18 10 8 11 13 15 21 29 33 32 28 33 38 39 45 53 57 67 75 80 82 83 80 63 68 64 70 87 86 69 71 69 96 76 60 47 46 44 51
30 24 21 15 11 9 14 22 19 20 16 16 17 24 31 33 33 46 50 54 62 65 66 69 73 75 79 76 64 60 68 98 107 82 98 108 112 96 53 49 45 52 57
28 17 13 16 11 9 9 9 10 14 18 19 18 20 29 30 36 50 58 63 62 57 64 73 80 83 76 64 70 68 72 83 96 94 65 77 57 60 58 55 46 43 48
22 13 15 13 8 16 22 17 10 8 18 26 33 34 28 29 36 46 59 62 69 61 60 63 73 67 68 60 64 65 60 71 74 92 69 4 57 57 56 42 44 43 42
33 24 11 5 12 18 25 38 44 35 23 21 26 34 39 42 42 47 57 58 64 67 61 60 63 70 74 69 54 66 66 64 58 65 51 68 62 50 40 37 43 44 32
29 30 24 16 15 28 38 42 45 41 43 44 43 49 52 56 62 63 61 68 68 67 68 71 68 67 65 58 59 42 64 77 72 55 56 63 56 58 66 58 53 46 40
21 13 18 28 40 39 46 46 43 45 48 50 48 40 40 45 54 62 63 65 68 70 68 73 76 73 58 57 45 35 32 43 38 39 43 53 60 60 58 49 46 44 41
20 38 42 38 23 20 16 19 28 38 44 41 46 54 56 59 61 67 70 69 71 74 68 72 71 75 64 52 45 36 31 43 48 45 44 51 49 47 44 43 37 31 26
11 14 14 29 34 38 40 45 50 51 50 53 58 63 62 57 56 59 58 65 68 72 74 68 70 72 73 65 51 43 15 52 30 39 43 47 45 40 46 39 32 28 25
32 32 33 35 40 44 48 51 50 56 63 70 75 78 78 79 80 76 89 87 75 70 70 76 69 70 67 59 44 43 40 62 45 41 43 50 47 47 45 45 42 36 33
43 43 46 50 55 61 64 64 69 74 75 73 72 69 70 69 74 79 87 99 95 91 72 57 64 62 62 58 61 52 41 44 43 38 48 51 53 46 43 38 37 35 32
40 45 47 53 59 66 67 64 65 68 64 63 65 65 65 67 69 77 91 93 95 95 90 80 52 54 51 52 44 48 61 64 64 39 45 57 56 51 48 50 45 43 45
53 50 55 68 71 57 38 50 60 63 67 64 60 62 62 71 78 84 90 87 89 90 87 85 81 55 57 48 47 47 43 52 60 51 43 47 70 74 69 58 63 59 54
62 70 61 48 35 49 59 67 77 82 87 88 90 91 86 82 83 90 84 78 81 84 80 60 82 85 66 68 64 50 41 41 49 45 50 56 43 54 82 64 63 59 62
52 30 55 71 78 87 89 90 100 96 89 77 74 73 77 79 75 65 70 78 74 75 73 67 69 72 74 67 68 75 64 63 44 51 49 58 58 57 56 59 67 65 68
58 69 82 95 104 105 98 85 79 78 75 74 72 74 67 69 58 61 64 65 69 67 69 67 63 58 58 62 67 59 53 57 50 62 62 56 59 58 58 51 54 60 62
81 95 105 90 78 88 80 79 72 70 72 71 69 68 66 64 65 64 63 68 73 72 69 69 67 67 68 62 56 59 64 52 56 58 58 62 62 62 61 59 60 47 47
101 82 69 74 83 79 75 71 66 64 67 70 65 61 59 63 69 68 66 63 68 69 72 70 68 66 59 56 51 49 56 63 48 34 44 55 59 79 72 71 68 64 61
Wind_Direction_850mb
250 227 231 235 220 211 221 217 215 209 222 231 239 237 231 236 230 228 229 236 242 247 249 252 250 249 249 248 243 241 239 241 242 245 245 242 244 246 250 252 269 263 260
233 224 197 202 212 215 231 241 252 259 242 231 240 243 244 248 246 242 246 239 237 245 249 251 252 250 250 250 245 242 242 242 240 235 237 239 239 238 238 248 252 254 255
214 223 217 198 215 214 197 201 250 265 269 254 243 247 253 257 257 253 257 251 245 241 247 250 254 255 254 255 253 241 238 238 240 235 228 223 235 241 245 248 244 246 248
208 219 220 216 197 176 173 183 187 213 260 268 270 253 253 259 258 259 261 261 257 253 251 252 256 259 261 257 252 243 238 236 239 237 230 228 239 221 226 233 234 242 247
200 190 191 192 156 140 134 147 150 150 183 225 260 262 264 262 270 264 263 259 258 263 259 256 256 257 264 266 262 251 245 237 241 240 228 230 234 233 237 219 223 235 250
195 177 156 142 133 141 140 138 142 145 263 297 308 298 295 293 281 268 263 259 257 256 256 263 263 259 256 266 257 268 265 241 237 240 241 239 226 229 234 237 251 256 269
130 127 122 118 125 143 155 184 213 239 262 284 294 297 293 286 283 283 279 275 270 264 265 264 274 269 262 256 241 261 316 274 257 257 253 244 236 226 230 240 247 251 270
106 104 104 103 108 110 121 252 275 284 290 294 303 298 290 293 296 287 284 278 278 277 274 273 280 288 280 272 266 278 259 253 253 261 263 269 231 225 231 233 245 252 253
102 99 100 99 92 64 340 290 280 275 279 284 272 268 280 293 295 288 283 283 280 275 275 277 284 285 290 296 281 278 261 237 247 260 257 251 267 235 221 229 241 246 248
104 92 77 58 23 346 333 329 254 246 236 223 266 280 269 269 278 289 293 290 291 288 288 286 283 285 291 293 283 263 248 240 242 262 262 271 272 236 216 222 231 240 248
36 47 34 6 336 315 335 58 330 284 270 273 291 297 290 294 278 283 292 298 299 301 300 296 291 291 289 294 285 273 261 244 247 254 255 291 268 237 225 218 227 231 246
339 341 328 292 267 276 283 287 303 327 320 297 290 295 296 303 304 291 288 299 300 296 301 304 302 295 292 293 288 281 268 252 245 240 253 193 240 226 231 221 227 232 236
328 317 290 230 255 270 280 283 285 279 272 292 289 284 281 279 292 301 298 299 300 297 299 300 308 308 291 288 293 279 271 246 238 237 229 191 187 223 231 250 233 236 234
299 283 295 267 276 281 284 282 268 265 276 270 278 285 282 283 288 288 289 287 295 298 300 291 297 305 301 289 277 283 256 246 237 212 199 202 204 205 229 212 217 225 238
244 262 288 292 291 286 277 273 260 266 268 277 283 285 292 290 285 284 287 285 289 293 298 303 289 290 291 289 275 280 268 250 202 207 209 208 209 213 216 212 217 224 237
278 279 285 289 308 287 320 293 279 276 278 274 273 279 285 287 290 293 292 289 289 289 293 292 299 288 280 294 269 282 249 261 235 221 213 213 207 210 218 215 224 213 195
16 18 326 318 321 318 314 307 302 289 272 268 275 277 278 279 279 284 285 284 288 287 284 288 291 295 288 283 287 268 275 284 233 222 212 208 212 219 209 210 204 203 215
350 338 326 314 307 302 299 298 297 295 291 287 283 281 279 281 277 279 282 278 277 285 287 286 284 287 294 277 277 274 264 258 247 228 209 205 201 208 210 211 212 217 223
328 323 318 312 308 306 303 301 295 289 286 285 277 272 273 271 274 274 282 282 284 281 284 289 285 278 282 288 272 266 264 260 272 237 221 212 208 223 226 227 231 236 246
319 313 307 307 307 305 302 300 291 285 285 283 281 275 269 268 271 275 278 275 287 284 282 274 285 285 283 287 287 271 251 261 267 258 247 223 219 214 223 237 233 238 251
315 309 310 310 307 303 293 295 290 284 283 281 277 275 273 269 273 275 277 274 275 284 278 270 265 271 267 277 284 279 266 259 260 255 253 246 246 263 237 243 245 247 261
317 316 309 299 290 300 303 297 293 294 293 292 288 284 282 280 278 276 270 266 274 278 271 270 261 265 267 262 266 272 277 276 267 267 257 250 241 242 248 242 244 251 257
317 309 309 307 305 302 305 304 301 300 298 295 291 287 284 284 272 266 269 271 269 265 269 268 263 261 263 262 263 267 270 267 270 260 252 248 247 250 247 253 248 254 257
311 308 308 307 306 304 304 301 298 296 295 292 290 292 287 284 276 271 273 263 262 259 263 261 260 263 262 261 260 259 267 274 272 260 251 245 244 245 247 248 246 250 253
310 309 310 309 304 308 305 302 298 296 294 291 289 288 284 282 281 273 265 268 266 259 259 259 261 260 257 257 254 253 254 263 254 256 250 248 244 242 243 244 245 252 255
313 314 309 303 304 304 304 303 301 296 287 288 288 287 285 274 272 276 280 273 267 264 262 262 258 255 254 255 248 239 237 245 254 241 242 238 242 239 239 245 251 254 254